Year,Month,Day,Hour,Minute,Value (Times are PST for temperature in C)
2008,08,17,00,00,19.40
2008,08,17,00,01,19.40
2008,08,17,00,02,19.40
2008,08,17,00,03,19.40
2008,08,17,00,04,19.40
2008,08,17,00,05,19.40
2008,08,17,00,06,19.40
2008,08,17,00,07,19.40
2008,08,17,00,08,19.30
2008,08,17,00,09,19.30
2008,08,17,00,10,19.30
2008,08,17,00,11,19.20
2008,08,17,00,12,19.20
2008,08,17,00,13,19.10
2008,08,17,00,14,19.10
2008,08,17,00,15,19.10
2008,08,17,00,16,19.10
2008,08,17,00,17,19.00
2008,08,17,00,18,19.00
2008,08,17,00,19,19.00
2008,08,17,00,20,18.90
2008,08,17,00,21,18.90
2008,08,17,00,22,18.90
2008,08,17,00,23,18.90
2008,08,17,00,24,18.90
2008,08,17,00,25,18.80
2008,08,17,00,26,18.80
2008,08,17,00,27,18.80
2008,08,17,00,28,18.80
2008,08,17,00,29,18.80
2008,08,17,00,30,18.80
2008,08,17,00,31,18.80
2008,08,17,00,32,18.80
2008,08,17,00,33,18.80
2008,08,17,00,34,18.80
2008,08,17,00,35,18.80
2008,08,17,00,36,18.80
2008,08,17,00,37,18.80
2008,08,17,00,38,18.80
2008,08,17,00,39,18.70
2008,08,17,00,40,18.70
2008,08,17,00,41,18.70
2008,08,17,00,42,18.70
2008,08,17,00,43,18.70
2008,08,17,00,44,18.60
2008,08,17,00,45,18.60
2008,08,17,00,46,18.60
2008,08,17,00,47,18.60
2008,08,17,00,48,18.60
2008,08,17,00,49,18.50
2008,08,17,00,50,18.50
2008,08,17,00,51,18.50
2008,08,17,00,52,18.50
2008,08,17,00,53,18.50
2008,08,17,00,54,18.50
2008,08,17,00,55,18.40
2008,08,17,00,56,18.40
2008,08,17,00,57,18.40
2008,08,17,00,58,18.40
2008,08,17,00,59,18.40
2008,08,17,01,00,18.30
2008,08,17,01,01,18.30
2008,08,17,01,02,18.30
2008,08,17,01,03,18.30
2008,08,17,01,04,18.30
2008,08,17,01,05,18.20
2008,08,17,01,06,18.20
2008,08,17,01,07,18.20
2008,08,17,01,08,18.10
2008,08,17,01,09,18.10
2008,08,17,01,10,18.00
2008,08,17,01,11,18.00
2008,08,17,01,12,17.90
2008,08,17,01,13,17.90
2008,08,17,01,14,17.90
2008,08,17,01,15,17.80
2008,08,17,01,16,17.80
2008,08,17,01,17,17.80
2008,08,17,01,18,17.80
2008,08,17,01,19,17.80
2008,08,17,01,20,17.80
2008,08,17,01,21,17.80
2008,08,17,01,22,17.80
2008,08,17,01,23,17.80
2008,08,17,01,24,17.80
2008,08,17,01,25,17.80
2008,08,17,01,26,17.80
2008,08,17,01,27,17.80
2008,08,17,01,28,17.80
2008,08,17,01,29,17.80
2008,08,17,01,30,17.80
2008,08,17,01,31,17.80
2008,08,17,01,32,17.70
2008,08,17,01,33,17.70
2008,08,17,01,34,17.70
2008,08,17,01,35,17.70
2008,08,17,01,36,17.70
2008,08,17,01,37,17.70
2008,08,17,01,38,17.70
2008,08,17,01,39,17.70
2008,08,17,01,40,17.60
2008,08,17,01,41,17.60
2008,08,17,01,42,17.60
2008,08,17,01,43,17.60
2008,08,17,01,44,17.60
2008,08,17,01,45,17.50
2008,08,17,01,46,17.50
2008,08,17,01,47,17.40
2008,08,17,01,48,17.40
2008,08,17,01,49,17.40
2008,08,17,01,50,17.40
2008,08,17,01,51,17.40
2008,08,17,01,52,17.40
2008,08,17,01,53,17.40
2008,08,17,01,54,17.40
2008,08,17,01,55,17.40
2008,08,17,01,56,17.40
2008,08,17,01,57,17.40
2008,08,17,01,58,17.40
2008,08,17,01,59,17.40
2008,08,17,02,00,17.30
2008,08,17,02,01,17.30
2008,08,17,02,02,17.30
2008,08,17,02,03,17.20
2008,08,17,02,04,17.20
2008,08,17,02,05,17.20
2008,08,17,02,06,17.20
2008,08,17,02,07,17.20
2008,08,17,02,08,17.20
2008,08,17,02,09,17.20
2008,08,17,02,10,17.20
2008,08,17,02,11,17.20
2008,08,17,02,12,17.10
2008,08,17,02,13,17.10
2008,08,17,02,14,17.10
2008,08,17,02,15,17.10
2008,08,17,02,16,17.10
2008,08,17,02,17,17.10
2008,08,17,02,18,17.10
2008,08,17,02,19,17.10
2008,08,17,02,20,17.10
2008,08,17,02,21,17.10
2008,08,17,02,22,17.10
2008,08,17,02,23,17.10
2008,08,17,02,24,17.10
2008,08,17,02,25,17.10
2008,08,17,02,26,17.10
2008,08,17,02,27,17.10
2008,08,17,02,28,17.10
2008,08,17,02,29,17.10
2008,08,17,02,30,17.00
2008,08,17,02,31,17.00
2008,08,17,02,32,17.00
2008,08,17,02,33,17.00
2008,08,17,02,34,16.90
2008,08,17,02,35,16.90
2008,08,17,02,36,16.90
2008,08,17,02,37,16.90
2008,08,17,02,38,16.90
2008,08,17,02,39,16.90
2008,08,17,02,40,16.90
2008,08,17,02,41,16.90
2008,08,17,02,42,16.80
2008,08,17,02,43,16.80
2008,08,17,02,44,16.80
2008,08,17,02,45,16.80
2008,08,17,02,46,16.80
2008,08,17,02,47,16.90
2008,08,17,02,48,16.90
2008,08,17,02,49,16.90
2008,08,17,02,50,16.90
2008,08,17,02,51,16.90
2008,08,17,02,52,16.90
2008,08,17,02,53,17.00
2008,08,17,02,54,17.00
2008,08,17,02,55,17.00
2008,08,17,02,56,17.00
2008,08,17,02,57,17.00
2008,08,17,02,58,17.00
2008,08,17,02,59,17.00
2008,08,17,03,00,17.00
2008,08,17,03,01,17.00
2008,08,17,03,02,17.00
2008,08,17,03,03,16.90
2008,08,17,03,04,16.90
2008,08,17,03,05,16.90
2008,08,17,03,06,16.80
2008,08,17,03,07,16.80
2008,08,17,03,08,16.80
2008,08,17,03,09,16.80
2008,08,17,03,10,16.80
2008,08,17,03,11,16.80
2008,08,17,03,12,16.70
2008,08,17,03,13,16.70
2008,08,17,03,14,16.70
2008,08,17,03,15,16.70
2008,08,17,03,16,16.60
2008,08,17,03,17,16.60
2008,08,17,03,18,16.60
2008,08,17,03,19,16.50
2008,08,17,03,20,16.50
2008,08,17,03,21,16.50
2008,08,17,03,22,16.50
2008,08,17,03,23,16.50
2008,08,17,03,24,16.50
2008,08,17,03,25,16.50
2008,08,17,03,26,16.50
2008,08,17,03,27,16.50
2008,08,17,03,28,16.50
2008,08,17,03,29,16.50
2008,08,17,03,30,16.50
2008,08,17,03,31,16.50
2008,08,17,03,32,16.50
2008,08,17,03,33,16.50
2008,08,17,03,34,16.50
2008,08,17,03,35,16.50
2008,08,17,03,36,16.50
2008,08,17,03,37,16.50
2008,08,17,03,38,16.50
2008,08,17,03,39,16.50
2008,08,17,03,40,16.50
2008,08,17,03,41,16.40
2008,08,17,03,42,16.40
2008,08,17,03,43,16.40
2008,08,17,03,44,16.40
2008,08,17,03,45,16.40
2008,08,17,03,46,16.40
2008,08,17,03,47,16.40
2008,08,17,03,48,16.40
2008,08,17,03,49,16.40
2008,08,17,03,50,16.40
2008,08,17,03,51,16.40
2008,08,17,03,52,16.40
2008,08,17,03,53,16.40
2008,08,17,03,54,16.30
2008,08,17,03,55,16.30
2008,08,17,03,56,16.30
2008,08,17,03,57,16.30
2008,08,17,03,58,16.30
2008,08,17,03,59,16.30
2008,08,17,04,00,16.30
2008,08,17,04,01,16.30
2008,08,17,04,02,16.30
2008,08,17,04,03,16.30
2008,08,17,04,04,16.30
2008,08,17,04,05,16.30
2008,08,17,04,06,16.30
2008,08,17,04,07,16.30
2008,08,17,04,08,16.30
2008,08,17,04,09,16.30
2008,08,17,04,10,16.30
2008,08,17,04,11,16.30
2008,08,17,04,12,16.30
2008,08,17,04,13,16.30
2008,08,17,04,14,16.30
2008,08,17,04,15,16.30
2008,08,17,04,16,16.30
2008,08,17,04,17,16.30
2008,08,17,04,18,16.30
2008,08,17,04,19,16.30
2008,08,17,04,20,16.30
2008,08,17,04,21,16.30
2008,08,17,04,22,16.30
2008,08,17,04,23,16.30
2008,08,17,04,24,16.30
2008,08,17,04,25,16.40
2008,08,17,04,26,16.40
2008,08,17,04,27,16.40
2008,08,17,04,28,16.40
2008,08,17,04,29,16.40
2008,08,17,04,30,16.40
2008,08,17,04,31,16.40
2008,08,17,04,32,16.40
2008,08,17,04,33,16.40
2008,08,17,04,34,16.30
2008,08,17,04,35,16.30
2008,08,17,04,36,16.30
2008,08,17,04,37,16.30
2008,08,17,04,38,16.30
2008,08,17,04,39,16.30
2008,08,17,04,40,16.30
2008,08,17,04,41,16.20
2008,08,17,04,42,16.20
2008,08,17,04,43,16.20
2008,08,17,04,44,16.20
2008,08,17,04,45,16.20
2008,08,17,04,46,16.20
2008,08,17,04,47,16.20
2008,08,17,04,48,16.20
2008,08,17,04,49,16.20
2008,08,17,04,50,16.20
2008,08,17,04,51,16.20
2008,08,17,04,52,16.20
2008,08,17,04,53,16.20
2008,08,17,04,54,16.20
2008,08,17,04,55,16.20
2008,08,17,04,56,16.20
2008,08,17,04,57,16.10
2008,08,17,04,58,16.10
2008,08,17,04,59,16.10
2008,08,17,05,00,16.10
2008,08,17,05,01,16.10
2008,08,17,05,02,16.10
2008,08,17,05,03,16.10
2008,08,17,05,04,16.00
2008,08,17,05,05,16.00
2008,08,17,05,06,16.00
2008,08,17,05,07,16.00
2008,08,17,05,08,16.00
2008,08,17,05,09,16.00
2008,08,17,05,10,16.00
2008,08,17,05,11,16.00
2008,08,17,05,12,16.00
2008,08,17,05,13,16.00
2008,08,17,05,14,16.10
2008,08,17,05,15,16.10
2008,08,17,05,16,16.10
2008,08,17,05,17,16.10
2008,08,17,05,18,16.10
2008,08,17,05,19,16.10
2008,08,17,05,20,16.10
2008,08,17,05,21,16.10
2008,08,17,05,22,16.10
2008,08,17,05,23,16.20
2008,08,17,05,24,16.20
2008,08,17,05,25,16.20
2008,08,17,05,26,16.20
2008,08,17,05,27,16.20
2008,08,17,05,28,16.20
2008,08,17,05,29,16.10
2008,08,17,05,30,16.20
2008,08,17,05,31,16.10
2008,08,17,05,32,16.10
2008,08,17,05,33,16.20
2008,08,17,05,34,16.20
2008,08,17,05,35,16.20
2008,08,17,05,36,16.20
2008,08,17,05,37,16.20
2008,08,17,05,38,16.20
2008,08,17,05,39,16.20
2008,08,17,05,40,16.20
2008,08,17,05,41,16.30
2008,08,17,05,42,16.30
2008,08,17,05,43,16.30
2008,08,17,05,44,16.30
2008,08,17,05,45,16.30
2008,08,17,05,46,16.30
2008,08,17,05,47,16.30
2008,08,17,05,48,16.30
2008,08,17,05,49,16.30
2008,08,17,05,50,16.30
2008,08,17,05,51,16.30
2008,08,17,05,52,16.30
2008,08,17,05,53,16.30
2008,08,17,05,54,16.30
2008,08,17,05,55,16.30
2008,08,17,05,56,16.30
2008,08,17,05,57,16.30
2008,08,17,05,58,16.30
2008,08,17,05,59,16.30
2008,08,17,06,00,16.30
2008,08,17,06,01,16.30
2008,08,17,06,02,16.30
2008,08,17,06,03,16.30
2008,08,17,06,04,16.30
2008,08,17,06,05,16.30
2008,08,17,06,06,16.40
2008,08,17,06,07,16.40
2008,08,17,06,08,16.40
2008,08,17,06,09,16.40
2008,08,17,06,10,16.40
2008,08,17,06,11,16.40
2008,08,17,06,12,16.40
2008,08,17,06,13,16.40
2008,08,17,06,14,16.30
2008,08,17,06,15,16.30
2008,08,17,06,16,16.30
2008,08,17,06,17,16.30
2008,08,17,06,18,16.30
2008,08,17,06,19,16.30
2008,08,17,06,20,16.30
2008,08,17,06,21,16.20
2008,08,17,06,22,16.20
2008,08,17,06,23,16.20
2008,08,17,06,24,16.20
2008,08,17,06,25,16.20
2008,08,17,06,26,16.20
2008,08,17,06,27,16.20
2008,08,17,06,28,16.20
2008,08,17,06,29,16.20
2008,08,17,06,30,16.20
2008,08,17,06,31,16.20
2008,08,17,06,32,16.20
2008,08,17,06,33,16.20
2008,08,17,06,34,16.20
2008,08,17,06,35,16.20
2008,08,17,06,36,16.20
2008,08,17,06,37,16.20
2008,08,17,06,38,16.20
2008,08,17,06,39,16.20
2008,08,17,06,40,16.20
2008,08,17,06,41,16.20
2008,08,17,06,42,16.10
2008,08,17,06,43,16.10
2008,08,17,06,44,16.10
2008,08,17,06,45,16.10
2008,08,17,06,46,16.00
2008,08,17,06,47,16.00
2008,08,17,06,48,16.00
2008,08,17,06,49,15.90
2008,08,17,06,50,15.90
2008,08,17,06,51,15.90
2008,08,17,06,52,15.90
2008,08,17,06,53,15.80
2008,08,17,06,54,15.80
2008,08,17,06,55,15.70
2008,08,17,06,56,15.60
2008,08,17,06,57,15.50
2008,08,17,06,58,15.40
2008,08,17,06,59,15.30
2008,08,17,07,00,15.30
2008,08,17,07,01,15.20
2008,08,17,07,02,15.10
2008,08,17,07,03,15.00
2008,08,17,07,04,15.00
2008,08,17,07,05,15.00
2008,08,17,07,06,14.90
2008,08,17,07,07,14.80
2008,08,17,07,08,14.80
2008,08,17,07,09,14.70
2008,08,17,07,10,14.70
2008,08,17,07,11,14.60
2008,08,17,07,12,14.60
2008,08,17,07,13,14.60
2008,08,17,07,14,14.60
2008,08,17,07,15,14.50
2008,08,17,07,16,14.50
2008,08,17,07,17,14.50
2008,08,17,07,18,14.50
2008,08,17,07,19,14.50
2008,08,17,07,20,14.50
2008,08,17,07,21,14.50
2008,08,17,07,22,14.50
2008,08,17,07,23,14.50
2008,08,17,07,24,14.50
2008,08,17,07,25,14.50
2008,08,17,07,26,14.50
2008,08,17,07,27,14.50
2008,08,17,07,28,14.50
2008,08,17,07,29,14.60
2008,08,17,07,30,14.60
2008,08,17,07,31,14.60
2008,08,17,07,32,14.60
2008,08,17,07,33,14.60
2008,08,17,07,34,14.60
2008,08,17,07,35,14.60
2008,08,17,07,36,14.70
2008,08,17,07,37,14.70
2008,08,17,07,38,14.70
2008,08,17,07,39,14.80
2008,08,17,07,40,14.80
2008,08,17,07,41,14.80
2008,08,17,07,42,14.80
2008,08,17,07,43,14.80
2008,08,17,07,44,14.80
2008,08,17,07,45,14.80
2008,08,17,07,46,14.80
2008,08,17,07,47,14.80
2008,08,17,07,48,14.90
2008,08,17,07,49,14.90
2008,08,17,07,50,14.90
2008,08,17,07,51,14.90
2008,08,17,07,52,14.80
2008,08,17,07,53,14.80
2008,08,17,07,54,14.80
2008,08,17,07,55,14.70
2008,08,17,07,56,14.70
2008,08,17,07,57,14.70
2008,08,17,07,58,14.70
2008,08,17,07,59,14.70
2008,08,17,08,00,14.70
2008,08,17,08,01,14.70
2008,08,17,08,02,14.70
2008,08,17,08,03,14.70
2008,08,17,08,04,14.80
2008,08,17,08,05,14.80
2008,08,17,08,06,14.80
2008,08,17,08,07,14.80
2008,08,17,08,08,14.90
2008,08,17,08,09,14.90
2008,08,17,08,10,15.00
2008,08,17,08,11,15.00
2008,08,17,08,12,15.00
2008,08,17,08,13,15.00
2008,08,17,08,14,15.00
2008,08,17,08,15,15.00
2008,08,17,08,16,15.20
2008,08,17,08,17,15.30
2008,08,17,08,18,15.50
2008,08,17,08,19,15.60
2008,08,17,08,20,15.70
2008,08,17,08,21,15.90
2008,08,17,08,22,16.00
2008,08,17,08,23,16.10
2008,08,17,08,24,16.30
2008,08,17,08,25,16.50
2008,08,17,08,26,16.70
2008,08,17,08,27,16.80
2008,08,17,08,28,17.00
2008,08,17,08,29,17.20
2008,08,17,08,30,17.30
2008,08,17,08,31,17.50
2008,08,17,08,32,17.70
2008,08,17,08,33,17.90
2008,08,17,08,34,18.10
2008,08,17,08,35,18.30
2008,08,17,08,36,18.40
2008,08,17,08,37,18.60
2008,08,17,08,38,18.70
2008,08,17,08,39,18.90
2008,08,17,08,40,18.90
2008,08,17,08,41,18.90
2008,08,17,08,42,18.80
2008,08,17,08,43,18.90
2008,08,17,08,44,19.00
2008,08,17,08,45,19.10
2008,08,17,08,46,19.20
2008,08,17,08,47,19.30
2008,08,17,08,48,19.40
2008,08,17,08,49,19.50
2008,08,17,08,50,19.50
2008,08,17,08,51,19.60
2008,08,17,08,52,19.60
2008,08,17,08,53,19.60
2008,08,17,08,54,19.70
2008,08,17,08,55,19.70
2008,08,17,08,56,19.80
2008,08,17,08,57,20.00
2008,08,17,08,58,20.10
2008,08,17,08,59,20.20
2008,08,17,09,00,20.30
2008,08,17,09,01,20.40
2008,08,17,09,02,20.50
2008,08,17,09,03,20.70
2008,08,17,09,04,20.80
2008,08,17,09,05,20.90
2008,08,17,09,06,21.10
2008,08,17,09,07,21.20
2008,08,17,09,08,21.30
2008,08,17,09,09,21.50
2008,08,17,09,10,21.70
2008,08,17,09,11,21.80
2008,08,17,09,12,21.90
2008,08,17,09,13,22.10
2008,08,17,09,14,22.20
2008,08,17,09,15,22.30
2008,08,17,09,16,22.40
2008,08,17,09,17,22.40
2008,08,17,09,18,22.40
2008,08,17,09,19,22.50
2008,08,17,09,20,22.40
2008,08,17,09,21,22.30
2008,08,17,09,22,22.20
2008,08,17,09,23,22.10
2008,08,17,09,24,22.00
2008,08,17,09,25,21.90
2008,08,17,09,26,21.90
2008,08,17,09,27,21.80
2008,08,17,09,28,21.80
2008,08,17,09,29,21.80
2008,08,17,09,30,21.90
2008,08,17,09,31,21.90
2008,08,17,09,32,21.90
2008,08,17,09,33,21.80
2008,08,17,09,34,21.80
2008,08,17,09,35,21.70
2008,08,17,09,36,21.60
2008,08,17,09,37,21.60
2008,08,17,09,38,21.60
2008,08,17,09,39,21.60
2008,08,17,09,40,21.60
2008,08,17,09,41,21.60
2008,08,17,09,42,21.70
2008,08,17,09,43,21.70
2008,08,17,09,44,21.70
2008,08,17,09,45,21.70
2008,08,17,09,46,21.70
2008,08,17,09,47,21.70
2008,08,17,09,48,21.70
2008,08,17,09,49,21.80
2008,08,17,09,50,21.70
2008,08,17,09,51,21.50
2008,08,17,09,52,21.20
2008,08,17,09,53,21.00
2008,08,17,09,54,20.70
2008,08,17,09,55,20.60
2008,08,17,09,56,20.40
2008,08,17,09,57,20.20
2008,08,17,09,58,20.10
2008,08,17,09,59,19.90
2008,08,17,10,00,19.80
2008,08,17,10,01,19.80
2008,08,17,10,02,19.70
2008,08,17,10,03,19.40
2008,08,17,10,04,19.20
2008,08,17,10,05,19.00
2008,08,17,10,06,18.90
2008,08,17,10,07,18.90
2008,08,17,10,08,18.90
2008,08,17,10,09,18.90
2008,08,17,10,10,18.80
2008,08,17,10,11,18.70
2008,08,17,10,12,18.70
2008,08,17,10,13,18.70
2008,08,17,10,14,18.70
2008,08,17,10,15,18.80
2008,08,17,10,16,18.80
2008,08,17,10,17,18.70
2008,08,17,10,18,18.70
2008,08,17,10,19,18.70
2008,08,17,10,20,18.60
2008,08,17,10,21,18.60
2008,08,17,10,22,18.60
2008,08,17,10,23,18.60
2008,08,17,10,24,18.70
2008,08,17,10,25,18.70
2008,08,17,10,26,18.80
2008,08,17,10,27,18.90
2008,08,17,10,28,19.00
2008,08,17,10,29,19.10
2008,08,17,10,30,19.20
2008,08,17,10,31,19.30
2008,08,17,10,32,19.50
2008,08,17,10,33,19.70
2008,08,17,10,34,19.80
2008,08,17,10,35,20.00
2008,08,17,10,36,20.10
2008,08,17,10,37,20.20
2008,08,17,10,38,20.30
2008,08,17,10,39,20.40
2008,08,17,10,40,20.40
2008,08,17,10,41,20.40
2008,08,17,10,42,20.50
2008,08,17,10,43,20.50
2008,08,17,10,44,20.60
2008,08,17,10,45,20.70
2008,08,17,10,46,20.80
2008,08,17,10,47,20.90
2008,08,17,10,48,20.90
2008,08,17,10,49,21.00
2008,08,17,10,50,21.10
2008,08,17,10,51,21.20
2008,08,17,10,52,21.20
2008,08,17,10,53,21.20
2008,08,17,10,54,21.20
2008,08,17,10,55,21.20
2008,08,17,10,56,21.30
2008,08,17,10,57,21.40
2008,08,17,10,58,21.40
2008,08,17,10,59,21.50
2008,08,17,11,00,21.40
2008,08,17,11,01,21.50
2008,08,17,11,02,21.50
2008,08,17,11,03,21.60
2008,08,17,11,04,21.50
2008,08,17,11,05,21.40
2008,08,17,11,06,21.40
2008,08,17,11,07,21.50
2008,08,17,11,08,21.60
2008,08,17,11,09,21.60
2008,08,17,11,10,21.50
2008,08,17,11,11,21.50
2008,08,17,11,12,21.50
2008,08,17,11,13,21.50
2008,08,17,11,14,21.50
2008,08,17,11,15,21.60
2008,08,17,11,16,21.70
2008,08,17,11,17,21.70
2008,08,17,11,18,21.70
2008,08,17,11,19,21.80
2008,08,17,11,20,21.80
2008,08,17,11,21,21.90
2008,08,17,11,22,22.00
2008,08,17,11,23,22.20
2008,08,17,11,24,22.30
2008,08,17,11,25,22.40
2008,08,17,11,26,22.40
2008,08,17,11,27,22.40
2008,08,17,11,28,22.50
2008,08,17,11,29,22.50
2008,08,17,11,30,22.60
2008,08,17,11,31,22.80
2008,08,17,11,32,22.80
2008,08,17,11,33,22.80
2008,08,17,11,34,22.90
2008,08,17,11,35,22.90
2008,08,17,11,36,22.80
2008,08,17,11,37,22.80
2008,08,17,11,38,22.80
2008,08,17,11,39,22.80
2008,08,17,11,40,23.00
2008,08,17,11,41,23.10
2008,08,17,11,42,23.20
2008,08,17,11,43,23.30
2008,08,17,11,44,23.50
2008,08,17,11,45,23.70
2008,08,17,11,46,23.80
2008,08,17,11,47,24.00
2008,08,17,11,48,24.20
2008,08,17,11,49,24.50
2008,08,17,11,50,24.60
2008,08,17,11,51,24.40
2008,08,17,11,52,24.20
2008,08,17,11,53,23.90
2008,08,17,11,54,23.60
2008,08,17,11,55,23.40
2008,08,17,11,56,23.10
2008,08,17,11,57,22.80
2008,08,17,11,58,22.60
2008,08,17,11,59,22.50
2008,08,17,12,00,22.40
2008,08,17,12,01,22.30
2008,08,17,12,02,22.20
2008,08,17,12,03,22.10
2008,08,17,12,04,22.10
2008,08,17,12,05,22.10
2008,08,17,12,06,22.10
2008,08,17,12,07,22.10
2008,08,17,12,08,22.20
2008,08,17,12,09,22.20
2008,08,17,12,10,22.20
2008,08,17,12,11,22.20
2008,08,17,12,12,22.20
2008,08,17,12,13,22.20
2008,08,17,12,14,22.20
2008,08,17,12,15,22.20
2008,08,17,12,16,22.20
2008,08,17,12,17,22.00
2008,08,17,12,18,21.90
2008,08,17,12,19,21.80
2008,08,17,12,20,21.60
2008,08,17,12,21,21.50
2008,08,17,12,22,21.40
2008,08,17,12,23,21.30
2008,08,17,12,24,21.30
2008,08,17,12,25,21.20
2008,08,17,12,26,21.10
2008,08,17,12,27,21.10
2008,08,17,12,28,21.00
2008,08,17,12,29,21.00
2008,08,17,12,30,21.10
2008,08,17,12,31,21.10
2008,08,17,12,32,21.10
2008,08,17,12,33,21.10
2008,08,17,12,34,21.10
2008,08,17,12,35,21.10
2008,08,17,12,36,21.20
2008,08,17,12,37,21.20
2008,08,17,12,38,21.30
2008,08,17,12,39,21.30
2008,08,17,12,40,21.30
2008,08,17,12,41,21.30
2008,08,17,12,42,21.30
2008,08,17,12,43,21.30
2008,08,17,12,44,21.30
2008,08,17,12,45,21.30
2008,08,17,12,46,21.30
2008,08,17,12,47,21.40
2008,08,17,12,48,21.40
2008,08,17,12,49,21.50
2008,08,17,12,50,21.60
2008,08,17,12,51,21.60
2008,08,17,12,52,21.60
2008,08,17,12,53,21.60
2008,08,17,12,54,21.60
2008,08,17,12,55,21.70
2008,08,17,12,56,21.70
2008,08,17,12,57,21.70
2008,08,17,12,58,21.70
2008,08,17,12,59,21.60
2008,08,17,13,00,21.60
2008,08,17,13,01,21.70
2008,08,17,13,02,21.70
2008,08,17,13,03,21.70
2008,08,17,13,04,21.70
2008,08,17,13,05,21.70
2008,08,17,13,06,21.70
2008,08,17,13,07,21.70
2008,08,17,13,08,21.70
2008,08,17,13,09,21.70
2008,08,17,13,10,21.70
2008,08,17,13,11,21.70
2008,08,17,13,12,21.70
2008,08,17,13,13,21.60
2008,08,17,13,14,21.60
2008,08,17,13,15,21.60
2008,08,17,13,16,21.60
2008,08,17,13,17,21.60
2008,08,17,13,18,21.50
2008,08,17,13,19,21.40
2008,08,17,13,20,21.30
2008,08,17,13,21,21.30
2008,08,17,13,22,21.30
2008,08,17,13,23,21.20
2008,08,17,13,24,21.10
2008,08,17,13,25,21.10
2008,08,17,13,26,21.00
2008,08,17,13,27,21.00
2008,08,17,13,28,20.90
2008,08,17,13,29,20.80
2008,08,17,13,30,20.80
2008,08,17,13,31,20.70
2008,08,17,13,32,20.70
2008,08,17,13,33,20.70
2008,08,17,13,34,20.60
2008,08,17,13,35,20.60
2008,08,17,13,36,20.60
2008,08,17,13,37,20.70
2008,08,17,13,38,20.70
2008,08,17,13,39,20.70
2008,08,17,13,40,20.70
2008,08,17,13,41,20.80
2008,08,17,13,42,20.80
2008,08,17,13,43,20.80
2008,08,17,13,44,20.80
2008,08,17,13,45,20.80
2008,08,17,13,46,20.80
2008,08,17,13,47,20.80
2008,08,17,13,48,20.80
2008,08,17,13,49,20.90
2008,08,17,13,50,20.90
2008,08,17,13,51,20.90
2008,08,17,13,52,20.80
2008,08,17,13,53,20.80
2008,08,17,13,54,20.80
2008,08,17,13,55,20.80
2008,08,17,13,56,20.80
2008,08,17,13,57,20.80
2008,08,17,13,58,20.80
2008,08,17,13,59,20.90
2008,08,17,14,00,20.90
2008,08,17,14,01,20.90
2008,08,17,14,02,21.00
2008,08,17,14,03,21.00
2008,08,17,14,04,21.10
2008,08,17,14,05,21.10
2008,08,17,14,06,21.10
2008,08,17,14,07,21.20
2008,08,17,14,08,21.20
2008,08,17,14,09,21.30
2008,08,17,14,10,21.40
2008,08,17,14,11,21.40
2008,08,17,14,12,21.50
2008,08,17,14,13,21.60
2008,08,17,14,14,21.70
2008,08,17,14,15,21.80
2008,08,17,14,16,21.80
2008,08,17,14,17,21.90
2008,08,17,14,18,21.90
2008,08,17,14,19,22.00
2008,08,17,14,20,22.20
2008,08,17,14,21,22.30
2008,08,17,14,22,22.40
2008,08,17,14,23,22.50
2008,08,17,14,24,22.60
2008,08,17,14,25,22.70
2008,08,17,14,26,22.80
2008,08,17,14,27,23.00
2008,08,17,14,28,23.10
2008,08,17,14,29,23.20
2008,08,17,14,30,23.30
2008,08,17,14,31,23.40
2008,08,17,14,32,23.40
2008,08,17,14,33,23.40
2008,08,17,14,34,23.40
2008,08,17,14,35,23.40
2008,08,17,14,36,23.50
2008,08,17,14,37,23.60
2008,08,17,14,38,23.70
2008,08,17,14,39,23.70
2008,08,17,14,40,23.80
2008,08,17,14,41,23.80
2008,08,17,14,42,23.70
2008,08,17,14,43,23.60
2008,08,17,14,44,23.50
2008,08,17,14,45,23.40
2008,08,17,14,46,23.20
2008,08,17,14,47,23.10
2008,08,17,14,48,23.00
2008,08,17,14,49,22.90
2008,08,17,14,50,22.80
2008,08,17,14,51,22.70
2008,08,17,14,52,22.60
2008,08,17,14,53,22.60
2008,08,17,14,54,22.50
2008,08,17,14,55,22.40
2008,08,17,14,56,22.40
2008,08,17,14,57,22.40
2008,08,17,14,58,22.40
2008,08,17,14,59,22.40
2008,08,17,15,00,22.40
2008,08,17,15,01,22.40
2008,08,17,15,02,22.40
2008,08,17,15,03,22.30
2008,08,17,15,04,22.30
2008,08,17,15,05,22.30
2008,08,17,15,06,22.20
2008,08,17,15,07,22.10
2008,08,17,15,08,22.00
2008,08,17,15,09,21.90
2008,08,17,15,10,21.80
2008,08,17,15,11,21.70
2008,08,17,15,12,21.70
2008,08,17,15,13,21.70
2008,08,17,15,14,21.60
2008,08,17,15,15,21.60
2008,08,17,15,16,21.50
2008,08,17,15,17,21.40
2008,08,17,15,18,21.40
2008,08,17,15,19,21.40
2008,08,17,15,20,21.30
2008,08,17,15,21,21.30
2008,08,17,15,22,21.30
2008,08,17,15,23,21.30
2008,08,17,15,24,21.30
2008,08,17,15,25,21.30
2008,08,17,15,26,21.30
2008,08,17,15,27,21.20
2008,08,17,15,28,21.10
2008,08,17,15,29,21.10
2008,08,17,15,30,21.00
2008,08,17,15,31,21.00
2008,08,17,15,32,21.00
2008,08,17,15,33,21.10
2008,08,17,15,34,21.10
2008,08,17,15,35,21.10
2008,08,17,15,36,21.20
2008,08,17,15,37,21.20
2008,08,17,15,38,21.30
2008,08,17,15,39,21.30
2008,08,17,15,40,21.30
2008,08,17,15,41,21.30
2008,08,17,15,42,21.30
2008,08,17,15,43,21.30
2008,08,17,15,44,21.40
2008,08,17,15,45,21.40
2008,08,17,15,46,21.40
2008,08,17,15,47,21.50
2008,08,17,15,48,21.60
2008,08,17,15,49,21.70
2008,08,17,15,50,21.80
2008,08,17,15,51,21.80
2008,08,17,15,52,21.80
2008,08,17,15,53,21.80
2008,08,17,15,54,21.80
2008,08,17,15,55,21.80
2008,08,17,15,56,21.80
2008,08,17,15,57,21.80
2008,08,17,15,58,21.80
2008,08,17,15,59,21.80
2008,08,17,16,00,21.80
2008,08,17,16,01,21.80
2008,08,17,16,02,21.90
2008,08,17,16,03,21.90
2008,08,17,16,04,21.90
2008,08,17,16,05,22.00
2008,08,17,16,06,22.00
2008,08,17,16,07,22.00
2008,08,17,16,08,22.00
2008,08,17,16,09,22.10
2008,08,17,16,10,22.10
2008,08,17,16,11,22.10
2008,08,17,16,12,22.20
2008,08,17,16,13,22.20
2008,08,17,16,14,22.30
2008,08,17,16,15,22.30
2008,08,17,16,16,22.40
2008,08,17,16,17,22.40
2008,08,17,16,18,22.40
2008,08,17,16,19,22.50
2008,08,17,16,20,22.50
2008,08,17,16,21,22.60
2008,08,17,16,22,22.60
2008,08,17,16,23,22.70
2008,08,17,16,24,22.70
2008,08,17,16,25,22.70
2008,08,17,16,26,22.70
2008,08,17,16,27,22.70
2008,08,17,16,28,22.80
2008,08,17,16,29,22.80
2008,08,17,16,30,22.90
2008,08,17,16,31,22.90
2008,08,17,16,32,23.00
2008,08,17,16,33,23.00
2008,08,17,16,34,23.00
2008,08,17,16,35,23.00
2008,08,17,16,36,23.00
2008,08,17,16,37,22.90
2008,08,17,16,38,22.90
2008,08,17,16,39,22.80
2008,08,17,16,40,22.70
2008,08,17,16,41,22.60
2008,08,17,16,42,22.50
2008,08,17,16,43,22.40
2008,08,17,16,44,22.30
2008,08,17,16,45,22.20
2008,08,17,16,46,22.10
2008,08,17,16,47,22.00
2008,08,17,16,48,21.90
2008,08,17,16,49,21.80
2008,08,17,16,50,21.80
2008,08,17,16,51,21.70
2008,08,17,16,52,21.60
2008,08,17,16,53,21.60
2008,08,17,16,54,21.50
2008,08,17,16,55,21.40
2008,08,17,16,56,21.30
2008,08,17,16,57,21.20
2008,08,17,16,58,21.10
2008,08,17,16,59,21.10
2008,08,17,17,00,21.10
2008,08,17,17,01,21.10
2008,08,17,17,02,21.00
2008,08,17,17,03,20.90
2008,08,17,17,04,20.80
2008,08,17,17,05,20.70
2008,08,17,17,06,20.60
2008,08,17,17,07,20.50
2008,08,17,17,08,20.50
2008,08,17,17,09,20.40
2008,08,17,17,10,20.40
2008,08,17,17,11,20.30
2008,08,17,17,12,20.20
2008,08,17,17,13,20.10
2008,08,17,17,14,20.00
2008,08,17,17,15,19.90
2008,08,17,17,16,19.80
2008,08,17,17,17,19.80
2008,08,17,17,18,19.90
2008,08,17,17,19,19.90